Location: Peebles
(55.6412°N, 3.1714°W)
Time: 13:51:16
(UTC+00:00)

RS-15 - Pass Details

Date: 08 December 2023
Orbit: 1893 x 2151 km, 64.8° (Epoch: 02 March)

Event Time Altitude Azimuth Distance (km) Brightness Sun altitude
Rises 17:26:07 0° 139° (SE) 5,647 10.2 -13.4°
Reaches altitude 10° 17:31:59 10° 118° (ESE) 4,621 9.6 -14.2°
Enters shadow 17:36:55 14° 93° (E) 4,235 9.2 -14.9°
